Flag for Australia Weather past 2 weeks in Darwin, Northern Territory, Australia

Now
90 °F

Sunny.


Feels Like: 93 °F
Forecast: 72 / 94 °F
Wind: 15 mph from North

Location: Darwin Airport

Current Time: Oct 2, 2014 at 2:12:56 PM

Latest Report: Oct 2, 2014 at 1:30 PM


Visibility: 10 mi

Pressure: 29.83 "Hg

Humidity: 49%

Dew point: 68 °F

Location of DarwinLocation

Historic Weather in Darwin — Graph

°F

Darwin temperature yesterday

Maximum temperature yesterday: 91 °F (at 11:30 AM)
Minimum temperature yesterday: 75 °F (at 3:30 AM)
Average temperature yesterday: 82 °F

Past Weeks' High & Low Weather Summary

 TemperatureHumidityPressure
High97 °F (Sep 19, 1:00 PM)100% (Sep 20, 6:00 AM)30.04 "Hg (Sep 20, 6:00 AM)
Low70 °F (Sep 18, 6:00 AM)9% (Sep 19, 1:30 PM)29.77 "Hg (Oct 1, 4:30 PM)
Average82 °F65%29.91 "Hg
* Reported Sep 17 12:30 PM — Oct 2 1:00 PM, Darwin, Weather by CustomWeather, © 2014

Note: Actual official high and low records may vary slightly from our data, if they occured in-between our weather recording intervals... More about our weather records

Advertising

Darwin weather history for previous 24 hours

 ConditionsComfort  
Time TempWeatherWind HumidityBarometerVisibility
1:00 PM
Oct 2
91 °FSunny.14 mph41%29.86 "Hg10 mi
12:30 PM88 °FSunny.13 mph49%29.86 "Hg10 mi
12:00 PM86 °FPassing clouds.10 mph55%29.89 "HgN/A
11:30 AM86 °FPassing clouds.12 mph59%29.92 "HgN/A
11:00 AM86 °FPassing clouds.9 mph52%29.92 "HgN/A
10:30 AM84 °FScattered clouds.8 mph58%29.95 "HgN/A
10:00 AM84 °FScattered clouds.7 mph58%29.95 "HgN/A
9:30 AM84 °FScattered clouds.8 mph62%29.95 "HgN/A
9:00 AM84 °FScattered clouds.2 mph62%29.95 "HgN/A
8:30 AM82 °FPassing clouds.6 mph66%29.95 "HgN/A
8:00 AM81 °FPassing clouds.5 mph70%29.95 "HgN/A
7:30 AM79 °FPassing clouds.5 mph74%29.92 "HgN/A
7:00 AM73 °FPassing clouds.6 mph89%29.92 "HgN/A
6:30 AM73 °FPassing clouds.6 mph89%29.89 "HgN/A
6:00 AM72 °FPassing clouds.No wind88%29.89 "HgN/A
5:30 AM72 °FClear.5 mph88%29.86 "Hg10 mi
5:00 AM73 °FClear.6 mph83%29.86 "Hg10 mi
4:30 AM75 °FClear.7 mph78%29.86 "Hg10 mi
4:00 AM75 °FClear.6 mph83%29.86 "Hg10 mi
3:30 AM79 °FClear.7 mph74%29.86 "Hg10 mi
3:00 AM79 °FClear.6 mph70%29.86 "Hg10 mi
2:30 AM77 °FClear.6 mph74%29.89 "Hg10 mi
2:00 AM77 °FPassing clouds.3 mph74%29.89 "HgN/A
1:30 AM79 °FPassing clouds.5 mph70%29.89 "HgN/A
1:00 AM79 °FPassing clouds.3 mph70%29.92 "HgN/A
12:30 AM81 °FPassing clouds.7 mph62%29.92 "HgN/A
12:00 AM81 °FPassing clouds.14 mph66%29.92 "HgN/A
11:30 PM
Oct 1
81 °FPassing clouds.14 mph70%29.92 "HgN/A
11:00 PM81 °FPassing clouds.13 mph70%29.92 "HgN/A
10:30 PM82 °FPassing clouds.14 mph66%29.92 "HgN/A
10:00 PM79 °FPassing clouds.6 mph65%29.89 "HgN/A
9:30 PM81 °FPassing clouds.7 mph62%29.89 "HgN/A
9:00 PM81 °FClear.8 mph58%29.89 "Hg10 mi
8:30 PM81 °FClear.6 mph66%29.89 "Hg10 mi
8:00 PM81 °FClear.No wind62%29.86 "Hg10 mi
7:30 PM82 °FClear.6 mph62%29.86 "Hg10 mi
7:00 PM84 °FSunny.6 mph55%29.83 "Hg10 mi
6:30 PM84 °FSunny.10 mph55%29.83 "Hg10 mi
6:00 PM84 °FSunny.12 mph55%29.80 "Hg10 mi
5:30 PM86 °FSunny.12 mph49%29.80 "Hg10 mi
5:00 PM86 °FSunny.12 mph46%29.80 "Hg10 mi
4:30 PM88 °FSunny.18 mph40%29.77 "Hg10 mi
4:00 PM88 °FSunny.17 mph43%29.80 "Hg10 mi
3:30 PM88 °FSunny.18 mph43%29.80 "Hg10 mi
3:00 PM90 °FSunny.17 mph41%29.80 "Hg10 mi
2:30 PM88 °FSunny.18 mph43%29.83 "Hg10 mi
2:00 PM88 °FSunny.16 mph43%29.83 "Hg10 mi
Weather by CustomWeather, © 2014

See weather overviewHow to use our weather pages